Weather History for Chester, CT

Change the Weather History Date:

Monday, January 21, 2013

  Actual Average (KHVN) Record (KHVN)
Temperature  
Mean Temperature 26 °F -  
Max Temperature 30 °F 32 °F 60 °F (1986)
Min Temperature 23 °F 20 °F 3 °F (1985)
Degree Days  
Heating Degree Days 38    
Moisture  
Dew Point 16 °F    
Average Humidity 65    
Maximum Humidity 100    
Minimum Humidity 40    
Precipitation  
Precipitation 1.06 in - - ()
Sea Level Pressure  
Sea Level Pressure 29.96 in    
Wind  
Wind Speed 4 mph (WSW)    
Max Wind Speed 10 mph    
Max Gust Speed 18 mph    
Visibility 8 miles    
Events Snow    
Averages and records for this station are not official NWS values.
T = Trace of Precipitation, MM = Missing Value Source: NWS Daily Summary

Daily Weather History Graph

Daily Weather History Graph

Search for Another Location

Airport:

Trip Planner

Search our weather history database for the weather conditions in past years. The results will help you decide how hot, cold, wet, or windy it might be!

Date:

Astronomy

Jan. 21, 2013 Rise Set
Actual Time 7:10 AM EST 4:52 PM EST
Civil Twilight 6:40 AM EST 5:22 PM EST
Nautical Twilight 6:06 AM EST 5:56 PM EST
Astronomical Twilight 5:33 AM EST 6:29 PM EST
Moon 12:30 PM EST (1/21) 2:36 AM EST (1/21)
Length of Visible Light 10h 42m
Length of Day
9h 42m
Waxing Gibbous, 75% of the Moon is Illuminated
Jan 21
Waxing Gibbous
Jan 26
Full
Feb 3
Last Quarter
Feb 10
New
Feb 17
First Quarter

Hourly Weather History & Observations

Time (EST) Temp. Windchill Dew Point Humidity Pressure Visibility Wind Dir Wind Speed Gust Speed Precip Events Conditions
12:15 AM 30.2 °F 21.3 °F 8.6 °F 40% 29.98 in 10.0 mi NW 10.4 mph 18.4 mph N/A   Clear
12:35 AM 30.2 °F 24.3 °F 8.6 °F 40% 29.99 in 10.0 mi WNW 5.8 mph - N/A   Clear
12:55 AM 30.2 °F 24.3 °F 8.6 °F 40% 30.00 in 10.0 mi WNW 5.8 mph - N/A   Clear
1:15 AM 28.4 °F 23.3 °F 8.6 °F 43% 30.00 in 10.0 mi NW 4.6 mph - N/A   Clear
1:35 AM 28.4 °F 22.2 °F 8.6 °F 43% 30.01 in 10.0 mi NW 5.8 mph - N/A   Clear
1:55 AM 28.4 °F 22.2 °F 8.6 °F 43% 30.02 in 10.0 mi WNW 5.8 mph - N/A   Clear
2:15 AM 28.4 °F 24.6 °F 8.6 °F 43% 30.02 in 10.0 mi WNW 3.5 mph - N/A   Clear
2:35 AM 28.4 °F 22.2 °F 8.6 °F 43% 30.02 in 10.0 mi WNW 5.8 mph - N/A   Clear
2:55 AM 28.4 °F 24.6 °F 8.6 °F 43% 30.03 in 10.0 mi WNW 3.5 mph - N/A   Clear
3:15 AM 26.6 °F - 8.6 °F 47% 30.03 in 10.0 mi Calm Calm - N/A   Clear
3:35 AM 26.6 °F 22.6 °F 8.6 °F 47% 30.04 in 10.0 mi NW 3.5 mph - N/A   Clear
3:55 AM 26.6 °F 21.2 °F 10.4 °F 51% 30.04 in 10.0 mi NNW 4.6 mph - N/A   Clear
4:15 AM 26.6 °F 22.6 °F 10.4 °F 51% 30.04 in 10.0 mi NW 3.5 mph - N/A   Clear
4:35 AM 26.6 °F - 12.2 °F 55% 30.05 in 10.0 mi Calm Calm - N/A   Clear
4:55 AM 24.8 °F - 10.4 °F 54% 30.05 in 10.0 mi Calm Calm - N/A   Clear
5:15 AM 23.0 °F - 10.4 °F 59% 30.05 in 10.0 mi Calm Calm - N/A   Clear
5:35 AM 23.0 °F 18.4 °F 12.2 °F 63% 30.05 in 10.0 mi NW 3.5 mph - N/A   Clear
5:55 AM 23.0 °F 18.4 °F 12.2 °F 63% 30.05 in 10.0 mi NNW 3.5 mph - N/A   Clear
6:15 AM 23.0 °F - 12.2 °F 63% 30.06 in 10.0 mi Calm Calm - N/A   Clear
6:35 AM 23.0 °F - 12.2 °F 63% 30.07 in 10.0 mi Calm Calm - N/A   Clear
6:55 AM 23.0 °F - 12.2 °F 63% 30.08 in 10.0 mi Calm Calm - N/A   Clear
7:15 AM 23.0 °F - 12.2 °F 63% 30.08 in 10.0 mi Calm Calm - N/A   Partly Cloudy
7:35 AM 23.0 °F - 14.0 °F 68% 30.07 in 10.0 mi Calm Calm - N/A   Clear
7:55 AM 24.8 °F - 12.2 °F 59% 30.07 in 10.0 mi Calm Calm - N/A   Clear
8:15 AM 26.6 °F - 12.2 °F 55% 30.07 in 10.0 mi Calm Calm - N/A   Clear
8:55 AM 26.6 °F - 12.2 °F 55% 30.09 in 10.0 mi Calm Calm - N/A   Partly Cloudy
9:15 AM 26.6 °F - 10.4 °F 51% 30.09 in 10.0 mi Calm Calm - N/A   Partly Cloudy
9:35 AM 28.4 °F - 10.4 °F 47% 30.09 in 10.0 mi Calm Calm - N/A   Scattered Clouds
9:55 AM 28.4 °F 23.3 °F 8.6 °F 43% 30.08 in 10.0 mi WSW 4.6 mph - N/A   Scattered Clouds
10:35 AM 28.4 °F 24.6 °F 6.8 °F 40% 30.05 in 10.0 mi WSW 3.5 mph - N/A   Clear
10:55 AM 28.4 °F 22.2 °F 6.8 °F 40% 30.04 in 10.0 mi SSW 5.8 mph - N/A   Clear
11:15 AM 28.4 °F 22.2 °F 8.6 °F 43% 30.02 in 10.0 mi West 5.8 mph - N/A   Clear
11:35 AM 30.2 °F 25.4 °F 8.6 °F 40% 30.01 in 10.0 mi South 4.6 mph - N/A   Partly Cloudy
11:55 AM 30.2 °F 23.4 °F 8.6 °F 40% 29.99 in 10.0 mi South 6.9 mph - N/A   Scattered Clouds
12:15 PM 30.2 °F 24.3 °F 8.6 °F 40% 29.99 in 10.0 mi South 5.8 mph - N/A   Scattered Clouds
12:35 PM 30.2 °F 24.3 °F 8.6 °F 40% 29.98 in 10.0 mi SW 5.8 mph - N/A   Partly Cloudy
12:55 PM 30.2 °F 26.7 °F 10.4 °F 44% 29.97 in 10.0 mi South 3.5 mph - N/A   Partly Cloudy
1:15 PM 30.2 °F 24.3 °F 10.4 °F 44% 29.97 in 10.0 mi SSE 5.8 mph - N/A   Mostly Cloudy
1:35 PM 30.2 °F 23.4 °F 10.4 °F 44% 29.96 in 10.0 mi South 6.9 mph - N/A   Scattered Clouds
1:55 PM 30.2 °F 23.4 °F 12.2 °F 47% 29.95 in 10.0 mi South 6.9 mph - N/A   Scattered Clouds
2:15 PM 30.2 °F 23.4 °F 12.2 °F 47% 29.95 in 10.0 mi SSE 6.9 mph - N/A   Overcast
2:35 PM 30.2 °F 22.6 °F 14.0 °F 51% 29.94 in 10.0 mi SSE 8.1 mph - N/A   Mostly Cloudy
2:55 PM 30.2 °F 23.4 °F 17.6 °F 60% 29.93 in 9.0 mi South 6.9 mph - N/A   Mostly Cloudy
3:15 PM 30.2 °F 22.6 °F 17.6 °F 60% 29.92 in 5.0 mi South 8.1 mph - N/A Snow Light Snow
3:35 PM 28.4 °F 22.2 °F 19.4 °F 69% 29.91 in 5.0 mi South 5.8 mph - N/A Snow Light Snow
3:55 PM 28.4 °F 24.6 °F 23.0 °F 80% 29.90 in 1.8 mi South 3.5 mph - 0.01 in Snow Light Snow
4:15 PM 28.4 °F - 24.8 °F 86% 29.89 in 1.8 mi Calm Calm - 0.02 in Snow Light Snow
4:35 PM 28.4 °F - 26.6 °F 93% 29.89 in 3.0 mi Calm Calm - 0.06 in Snow Light Snow
4:55 PM 28.4 °F - 26.6 °F 93% 29.89 in 3.0 mi Calm Calm - 0.09 in Snow Light Snow
5:15 PM 28.4 °F - 26.6 °F 93% 29.89 in 1.5 mi Calm Calm - 0.13 in Snow Light Snow
5:35 PM 28.4 °F - 26.6 °F 93% 29.88 in 1.5 mi Calm Calm - 0.34 in Snow Light Snow
5:55 PM 28.4 °F - 26.6 °F 93% 29.88 in 7.0 mi Calm Calm - 0.38 in Snow Light Snow
6:15 PM 28.4 °F - 26.6 °F 93% 29.88 in 6.0 mi Calm Calm - N/A Snow Light Snow
6:35 PM 28.4 °F - 28.4 °F 100% 29.88 in 2.0 mi Calm Calm - 0.07 in Snow Light Snow
6:55 PM 28.4 °F - 26.6 °F 93% 29.87 in 2.5 mi Calm Calm - 0.20 in Snow Light Snow
7:15 PM 28.4 °F - 26.6 °F 93% 29.88 in 4.0 mi Calm Calm - N/A Snow Light Snow
7:35 PM 28.4 °F - 26.6 °F 93% 29.86 in 3.0 mi Calm Calm - 0.02 in Snow Light Snow
7:55 PM 28.4 °F 24.6 °F 26.6 °F 93% 29.86 in 5.0 mi NNW 3.5 mph - 0.04 in Snow Light Snow
8:15 PM 28.4 °F - 26.6 °F 93% 29.87 in 2.0 mi Calm Calm - 0.06 in Snow Light Snow
8:35 PM 28.4 °F - 26.6 °F 93% 29.85 in 1.5 mi Calm Calm - 0.26 in Snow Light Snow
8:55 PM 28.4 °F - 26.6 °F 93% 29.84 in 3.0 mi Calm Calm - 0.33 in Snow Light Snow
9:15 PM 28.4 °F - 26.6 °F 93% 29.82 in 10.0 mi Calm Calm - N/A   Partly Cloudy
9:35 PM 28.4 °F 24.6 °F 26.6 °F 93% 29.83 in 10.0 mi NNW 3.5 mph - N/A   Clear
9:55 PM 28.4 °F - 26.6 °F 93% 29.81 in 5.0 mi Calm Calm - N/A Snow Light Snow
10:15 PM 28.4 °F - 26.6 °F 93% 29.80 in 6.0 mi Calm Calm - N/A Snow Light Snow
10:35 PM 28.4 °F - 26.6 °F 93% 29.81 in 5.0 mi Calm Calm - 0.01 in Snow Light Snow
10:55 PM 26.6 °F - 26.6 °F 100% 29.78 in 9.0 mi Calm Calm - 0.01 in   Clear
11:15 PM 26.6 °F - 26.6 °F 100% 29.78 in 10.0 mi Calm Calm - N/A   Scattered Clouds
11:35 PM 26.6 °F - 26.6 °F 100% 29.77 in 8.0 mi Calm Calm - N/A   Mostly Cloudy
11:55 PM 26.6 °F - 24.8 °F 93% 29.77 in 10.0 mi Calm Calm - N/A   Mostly Cloudy